| time (UTC) | temp C | wind direction | speed KPH | gust KPH | rain 1hr cm | rain 24hr cm | rain mn cm | humidity % | barometer mb |
| 20260905082612 | 14 | 315 | 0.0 | 0.0 | 0.00 | 0.00 | 0.00 | 99 | 1008.2 |
| 20260905082108 | 14 | 333 | 0.0 | 0.0 | 0.00 | 0.00 | 0.00 | 99 | 1008.2 |
| 20260905081607 | 14 | 314 | 0.0 | 0.0 | 0.00 | 0.00 | 0.00 | 99 | 1008.1 |
| 20260905081057 | 14 | 313 | 0.0 | 0.0 | 0.00 | 0.00 | 0.00 | 99 | 1008.3 |
| 20260905080557 | 13 | 320 | 0.0 | 0.0 | 0.00 | 0.00 | 0.00 | 99 | 1008.1 |
| 20260905080051 | 14 | 317 | 0.0 | 0.0 | 0.00 | 0.00 | 0.00 | 99 | 1008.0 |
| 20260905075544 | 14 | 318 | 0.0 | 0.0 | 0.00 | 0.00 | 0.00 | 99 | 1008.0 |
| 20260905075038 | 14 | 343 | 0.0 | 0.0 | 0.00 | 0.00 | 0.00 | 99 | 1008.0 |
| 20260905074532 | 14 | 356 | 1.6 | 1.6 | 0.00 | 0.00 | 0.00 | 99 | 1008.1 |
| 20260905074028 | 15 | 31 | 1.6 | 1.6 | 0.00 | 0.00 | 0.00 | 99 | 1008.1 |
| 20260905073523 | 15 | 339 | 0.0 | 0.0 | 0.00 | 0.00 | 0.00 | 99 | 1007.9 |
| 20260905073019 | 15 | 342 | 0.0 | 0.0 | 0.00 | 0.00 | 0.00 | 99 | 1007.9 |
| 20260905072518 | 15 | 333 | 0.0 | 0.0 | 0.00 | 0.00 | 0.00 | 99 | 1008.1 |
| 20260905072014 | 15 | 338 | 0.0 | 0.0 | 0.00 | 0.00 | 0.00 | 99 | 1008.1 |
| 20260905071511 | 15 | 313 | 0.0 | 0.0 | 0.00 | 0.00 | 0.00 | 98 | 1008.1 |
| 20260905071011 | 16 | 322 | 0.0 | 0.0 | 0.00 | 0.00 | 0.00 | 99 | 1008.1 |
| 20260905070507 | 15 | 324 | 0.0 | 1.6 | 0.00 | 0.00 | 0.00 | 99 | 1008.0 |
| 20260905070002 | 15 | 311 | 0.0 | 0.0 | 0.00 | 0.00 | 0.00 | 99 | 1008.2 |
| 20260905065500 | 15 | 340 | 0.0 | 0.0 | 0.00 | 0.00 | 0.00 | 99 | 1008.4 |
| 20260905064955 | 15 | 294 | 0.0 | 0.0 | 0.00 | 0.00 | 0.00 | 99 | 1008.3 |
| 20260905064450 | 15 | 319 | 0.0 | 0.0 | 0.00 | 0.00 | 0.00 | 99 | 1008.4 |
| 20260905063945 | 15 | 307 | 0.0 | 0.0 | 0.00 | 0.00 | 0.00 | 99 | 1008.3 |
| 20260905063439 | 15 | 344 | 0.0 | 0.0 | 0.00 | 0.00 | 0.00 | 99 | 1008.4 |
| 20260905062935 | 15 | 310 | 0.0 | 0.0 | 0.00 | 0.00 | 0.00 | 99 | 1008.4 |
| 20260905062429 | 14 | 292 | 0.0 | 0.0 | 0.00 | 0.00 | 0.00 | 99 | 1008.1 |
| 20260905061924 | 15 | 318 | 0.0 | 0.0 | 0.00 | 0.00 | 0.00 | 99 | 1008.3 |
| 20260905061419 | 15 | 313 | 0.0 | 0.0 | 0.00 | 0.00 | 0.00 | 99 | 1008.2 |
| 20260905060918 | 15 | 325 | 0.0 | 0.0 | 0.00 | 0.00 | 0.00 | 99 | 1008.2 |
| 20260905060415 | 15 | 339 | 0.0 | 1.6 | 0.00 | 0.00 | 0.00 | 99 | 1008.3 |
| 20260905055914 | 15 | 330 | 0.0 | 0.0 | 0.00 | 0.00 | 0.00 | 99 | 1008.2 |
| 20260905055410 | 15 | 298 | 0.0 | 0.0 | 0.00 | 0.00 | 0.00 | 99 | 1008.3 |
| 20260905054908 | 15 | 284 | 0.0 | 0.0 | 0.00 | 0.00 | 0.00 | 99 | 1008.4 |
| 20260905054405 | 15 | 319 | 0.0 | 0.0 | 0.00 | 0.00 | 0.00 | 99 | 1008.4 |
| 20260905053904 | 15 | 307 | 0.0 | 0.0 | 0.00 | 0.00 | 0.00 | 99 | 1008.4 |
| 20260905053359 | 15 | 302 | 0.0 | 0.0 | 0.00 | 0.00 | 0.00 | 99 | 1008.3 |
| 20260905052855 | 15 | 320 | 0.0 | 0.0 | 0.00 | 0.00 | 0.00 | 99 | 1008.3 |
| 20260905052354 | 15 | 324 | 0.0 | 0.0 | 0.00 | 0.00 | 0.00 | 99 | 1008.5 |
| 20260905051854 | 15 | 321 | 0.0 | 0.0 | 0.00 | 0.00 | 0.00 | 99 | 1008.5 |
| 20260905051350 | 14 | 307 | 0.0 | 0.0 | 0.00 | 0.00 | 0.00 | 99 | 1008.5 |
| 20260905050847 | 15 | 308 | 0.0 | 0.0 | 0.00 | 0.00 | 0.00 | 99 | 1008.4 |
| 20260905050343 | 15 | 312 | 0.0 | 0.0 | 0.00 | 0.00 | 0.00 | 99 | 1008.5 |
| 20260905045842 | 15 | 312 | 0.0 | 0.0 | 0.00 | 0.00 | 0.00 | 99 | 1008.5 |
| 20260905045338 | 15 | 318 | 0.0 | 0.0 | 0.00 | 0.00 | 0.00 | 99 | 1008.3 |
| 20260905044833 | 15 | 304 | 0.0 | 0.0 | 0.00 | 0.00 | 0.00 | 99 | 1008.3 |
| 20260905044328 | 15 | 298 | 0.0 | 0.0 | 0.00 | 0.00 | 0.00 | 99 | 1008.3 |
| 20260905043827 | 15 | 291 | 0.0 | 0.0 | 0.00 | 0.00 | 0.00 | 99 | 1008.4 |
| 20260905043322 | 15 | 306 | 0.0 | 0.0 | 0.00 | 0.00 | 0.00 | 99 | 1008.4 |
| 20260905042817 | 15 | 290 | 0.0 | 0.0 | 0.00 | 0.00 | 0.00 | 99 | 1008.3 |
| 20260905042317 | 15 | 291 | 0.0 | 0.0 | 0.00 | 0.00 | 0.00 | 99 | 1008.3 |
| 20260905041812 | 15 | 287 | 0.0 | 0.0 | 0.00 | 0.00 | 0.00 | 99 | 1008.4 |
| 20260905041308 | 15 | 290 | 0.0 | 0.0 | 0.00 | 0.00 | 0.00 | 99 | 1008.4 |
| 20260905040803 | 15 | 291 | 0.0 | 0.0 | 0.00 | 0.00 | 0.00 | 99 | 1008.6 |
| 20260905040301 | 15 | 304 | 0.0 | 0.0 | 0.00 | 0.00 | 0.00 | 99 | 1008.5 |
| 20260905035756 | 15 | 294 | 0.0 | 0.0 | 0.00 | 0.03 | 0.03 | 99 | 1008.4 |
| 20260905035252 | 15 | 289 | 0.0 | 0.0 | 0.00 | 0.03 | 0.03 | 99 | 1008.5 |
| 20260905034749 | 15 | 290 | 0.0 | 0.0 | 0.00 | 0.03 | 0.03 | 99 | 1008.5 |
| 20260905034249 | 15 | 303 | 0.0 | 0.0 | 0.00 | 0.03 | 0.03 | 99 | 1008.4 |
| 20260905033747 | 15 | 302 | 0.0 | 0.0 | 0.00 | 0.03 | 0.03 | 99 | 1008.6 |
| 20260905033243 | 15 | 303 | 0.0 | 0.0 | 0.00 | 0.03 | 0.03 | 99 | 1008.5 |
| 20260905032742 | 15 | 321 | 0.0 | 0.0 | 0.00 | 0.03 | 0.03 | 99 | 1008.5 |
| 20260905032238 | 15 | 307 | 0.0 | 0.0 | 0.00 | 0.03 | 0.03 | 98 | 1008.5 |
| 20260905031732 | 16 | 323 | 0.0 | 0.0 | 0.00 | 0.03 | 0.03 | 99 | 1008.7 |
| 20260905031229 | 16 | 307 | 0.0 | 0.0 | 0.00 | 0.03 | 0.03 | 98 | 1008.6 |
| 20260905030724 | 16 | 301 | 0.0 | 0.0 | 0.00 | 0.03 | 0.03 | 97 | 1008.7 |
| 20260905030218 | 16 | 299 | 0.0 | 0.0 | 0.00 | 0.03 | 0.03 | 97 | 1008.8 |
| 20260905025713 | 16 | 309 | 0.0 | 0.0 | 0.00 | 0.03 | 0.03 | 97 | 1008.8 |
| 20260905025209 | 16 | 312 | 0.0 | 0.0 | 0.00 | 0.03 | 0.03 | 96 | 1008.8 |
| 20260905024704 | 16 | 296 | 0.0 | 0.0 | 0.00 | 0.03 | 0.03 | 97 | 1008.7 |
| 20260905024200 | 16 | 312 | 0.0 | 0.0 | 0.00 | 0.03 | 0.03 | 95 | 1008.6 |
| 20260905023654 | 16 | 303 | 0.0 | 0.0 | 0.00 | 0.03 | 0.03 | 95 | 1008.7 |
| 20260905023149 | 17 | 309 | 0.0 | 0.0 | 0.00 | 0.03 | 0.03 | 94 | 1008.7 |
| 20260905022648 | 17 | 299 | 0.0 | 0.0 | 0.00 | 0.03 | 0.03 | 94 | 1008.7 |
| 20260905022144 | 17 | 304 | 0.0 | 0.0 | 0.00 | 0.03 | 0.03 | 93 | 1008.8 |
| 20260905021643 | 17 | 332 | 0.0 | 0.0 | 0.00 | 0.03 | 0.03 | 92 | 1008.8 |
| 20260905021139 | 18 | 315 | 0.0 | 0.0 | 0.00 | 0.03 | 0.03 | 90 | 1008.7 |
| 20260905020639 | 18 | 295 | 0.0 | 0.0 | 0.00 | 0.03 | 0.03 | 88 | 1008.7 |
| 20260905020134 | 18 | 302 | 0.0 | 0.0 | 0.00 | 0.03 | 0.03 | 87 | 1008.8 |
| 20260905015627 | 18 | 303 | 0.0 | 0.0 | 0.00 | 0.03 | 0.03 | 86 | 1008.8 |
| 20260905015121 | 18 | 354 | 0.0 | 0.0 | 0.00 | 0.03 | 0.03 | 86 | 1009.0 |
| 20260905014615 | 19 | 305 | 0.0 | 0.0 | 0.00 | 0.03 | 0.03 | 86 | 1009.0 |
| 20260905014111 | 19 | 307 | 0.0 | 0.0 | 0.00 | 0.03 | 0.03 | 85 | 1008.8 |
| 20260905013602 | 19 | 275 | 0.0 | 0.0 | 0.00 | 0.03 | 0.03 | 84 | 1008.9 |
| 20260905013057 | 20 | 298 | 0.0 | 0.0 | 0.00 | 0.03 | 0.03 | 83 | 1008.9 |
| 20260905012556 | 20 | 287 | 0.0 | 0.0 | 0.00 | 0.03 | 0.03 | 82 | 1008.9 |
| 20260905012054 | 20 | 308 | 0.0 | 0.0 | 0.00 | 0.03 | 0.03 | 83 | 1008.9 |
| 20260905011549 | 20 | 298 | 0.0 | 0.0 | 0.00 | 0.03 | 0.03 | 81 | 1008.8 |
| 20260905011044 | 20 | 297 | 0.0 | 0.0 | 0.00 | 0.03 | 0.03 | 80 | 1008.9 |
| 20260905010539 | 20 | 313 | 0.0 | 0.0 | 0.00 | 0.03 | 0.03 | 79 | 1008.8 |
| 20260905010036 | 20 | 300 | 0.0 | 0.0 | 0.00 | 0.03 | 0.03 | 79 | 1008.8 |
| 20260905005531 | 20 | 289 | 0.0 | 0.0 | 0.00 | 0.03 | 0.03 | 79 | 1008.7 |
| 20260905005026 | 20 | 291 | 0.0 | 0.0 | 0.00 | 0.03 | 0.03 | 78 | 1008.8 |
| 20260905004521 | 20 | 305 | 0.0 | 0.0 | 0.00 | 0.03 | 0.03 | 78 | 1008.8 |
| 20260905004016 | 20 | 275 | 1.6 | 1.6 | 0.00 | 0.03 | 0.03 | 78 | 1008.8 |
| 20260905003512 | 20 | 307 | 0.0 | 1.6 | 0.00 | 0.03 | 0.03 | 79 | 1008.7 |
| 20260905003007 | 21 | 261 | 3.2 | 3.2 | 0.00 | 0.03 | 0.03 | 77 | 1008.8 |
| 20260905002502 | 21 | 276 | 3.2 | 3.2 | 0.00 | 0.03 | 0.03 | 75 | 1009.0 |
| 20260905001956 | 21 | 317 | 1.6 | 1.6 | 0.00 | 0.03 | 0.03 | 75 | 1008.9 |
| 20260905001451 | 21 | 290 | 0.0 | 0.0 | 0.00 | 0.03 | 0.03 | 75 | 1008.7 |
| 20260905000945 | 21 | 302 | 0.0 | 0.0 | 0.00 | 0.03 | 0.03 | 75 | 1008.7 |
| 20260905000441 | 21 | 354 | 3.2 | 4.8 | 0.00 | 0.03 | 0.03 | 76 | 1008.7 |
| 20260904235936 | 21 | 19 | 0.0 | 1.6 | 0.00 | 0.03 | 0.03 | 78 | 1008.8 |
| 20260904235432 | 21 | 318 | 1.6 | 1.6 | 0.00 | 0.03 | 0.03 | 77 | 1008.7 |
| 20260904234931 | 21 | 298 | 0.0 | 0.0 | 0.00 | 0.03 | 0.03 | 78 | 1008.5 |
| 20260904234426 | 21 | 288 | 0.0 | 0.0 | 0.00 | 0.03 | 0.03 | 78 | 1008.5 |
| 20260904233922 | 21 | 303 | 0.0 | 0.0 | 0.00 | 0.03 | 0.03 | 77 | 1008.5 |
| 20260904233417 | 21 | 322 | 0.0 | 0.0 | 0.00 | 0.03 | 0.03 | 78 | 1008.3 |
| 20260904232914 | 21 | 332 | 0.0 | 0.0 | 0.00 | 0.03 | 0.03 | 76 | 1008.3 |
| 20260904232410 | 21 | 301 | 0.0 | 0.0 | 0.00 | 0.03 | 0.03 | 76 | 1008.4 |
| 20260904231906 | 22 | 326 | 0.0 | 1.6 | 0.00 | 0.03 | 0.03 | 74 | 1008.3 |
| 20260904231401 | 22 | 303 | 0.0 | 0.0 | 0.00 | 0.03 | 0.03 | 73 | 1008.3 |
| 20260904230855 | 22 | 329 | 0.0 | 1.6 | 0.00 | 0.03 | 0.03 | 72 | 1008.4 |
| 20260904230354 | 22 | 304 | 0.0 | 0.0 | 0.00 | 0.03 | 0.03 | 71 | 1008.2 |
| 20260904225850 | 22 | 302 | 0.0 | 0.0 | 0.00 | 0.03 | 0.03 | 70 | 1008.3 |
| 20260904225348 | 22 | 26 | 1.6 | 1.6 | 0.00 | 0.03 | 0.03 | 70 | 1008.4 |
| 20260904224848 | 22 | 301 | 3.2 | 3.2 | 0.00 | 0.03 | 0.03 | 70 | 1008.3 |
| 20260904224343 | 22 | 298 | 0.0 | 0.0 | 0.00 | 0.03 | 0.03 | 69 | 1008.4 |
| 20260904223842 | 22 | 291 | 0.0 | 1.6 | 0.00 | 0.03 | 0.03 | 69 | 1008.2 |
| 20260904223337 | 23 | 301 | 0.0 | 0.0 | 0.00 | 0.03 | 0.03 | 69 | 1008.1 |
| 20260904222834 | 23 | 313 | 0.0 | 0.0 | 0.00 | 0.03 | 0.03 | 68 | 1008.3 |
| 20260904222333 | 23 | 326 | 1.6 | 1.6 | 0.00 | 0.03 | 0.03 | 67 | 1008.2 |
| 20260904221827 | 23 | 300 | 1.6 | 3.2 | 0.00 | 0.03 | 0.03 | 67 | 1008.2 |
| 20260904221322 | 23 | 262 | 3.2 | 4.8 | 0.00 | 0.03 | 0.03 | 68 | 1008.2 |
| 20260904220818 | 23 | 76 | 3.2 | 4.8 | 0.00 | 0.03 | 0.03 | 69 | 1008.3 |
| 20260904220317 | 23 | 282 | 4.8 | 6.4 | 0.00 | 0.03 | 0.03 | 71 | 1008.4 |
| 20260904215812 | 23 | 312 | 0.0 | 0.0 | 0.00 | 0.03 | 0.03 | 71 | 1008.3 |
| 20260904215307 | 23 | 283 | 0.0 | 1.6 | 0.00 | 0.03 | 0.03 | 70 | 1008.4 |
| 20260904214803 | 23 | 306 | 0.0 | 0.0 | 0.00 | 0.03 | 0.03 | 69 | 1008.1 |
| 20260904214259 | 23 | 281 | 0.0 | 0.0 | 0.00 | 0.03 | 0.03 | 68 | 1008.3 |
| 20260904213756 | 24 | 300 | 3.2 | 3.2 | 0.00 | 0.03 | 0.03 | 68 | 1008.1 |
| 20260904213252 | 24 | 291 | 0.0 | 0.0 | 0.00 | 0.03 | 0.03 | 67 | 1008.2 |
| 20260904212748 | 25 | 64 | 4.8 | 4.8 | 0.00 | 0.03 | 0.03 | 64 | 1008.1 |
| 20260904212242 | 25 | 260 | 1.6 | 3.2 | 0.00 | 0.03 | 0.03 | 64 | 1008.3 |
| 20260904211737 | 25 | 346 | 8.0 | 11.3 | 0.00 | 0.03 | 0.03 | 65 | 1008.1 |
| 20260904211232 | 25 | 269 | 3.2 | 4.8 | 0.00 | 0.03 | 0.03 | 64 | 1008.2 |
| 20260904210727 | 26 | 260 | 1.6 | 1.6 | 0.00 | 0.03 | 0.03 | 65 | 1008.3 |
| 20260904210222 | 26 | 272 | 4.8 | 6.4 | 0.00 | 0.03 | 0.03 | 65 | 1008.2 |
| 20260904205718 | 26 | 13 | 3.2 | 3.2 | 0.00 | 0.03 | 0.03 | 65 | 1008.1 |
| 20260904205214 | 25 | 298 | 1.6 | 1.6 | 0.00 | 0.03 | 0.03 | 67 | 1008.0 |
| 20260904204710 | 25 | 7 | 1.6 | 1.6 | 0.00 | 0.03 | 0.03 | 69 | 1008.1 |
| 20260904204206 | 24 | 282 | 4.8 | 4.8 | 0.00 | 0.03 | 0.03 | 71 | 1008.0 |
| 20260904203702 | 23 | 333 | 0.0 | 0.0 | 0.00 | 0.03 | 0.03 | 75 | 1008.0 |
| 20260904203158 | 24 | 191 | 3.2 | 3.2 | 0.00 | 0.03 | 0.03 | 73 | 1007.9 |
| 20260904202653 | 25 | 289 | 0.0 | 0.0 | 0.00 | 0.03 | 0.03 | 72 | 1007.9 |
| 20260904202150 | 25 | 29 | 3.2 | 3.2 | 0.00 | 0.03 | 0.03 | 73 | 1008.0 |
| 20260904201644 | 25 | 303 | 3.2 | 3.2 | 0.00 | 0.03 | 0.03 | 77 | 1007.9 |
| 20260904201138 | 25 | 285 | 3.2 | 3.2 | 0.00 | 0.03 | 0.03 | 79 | 1008.1 |
| 20260904200633 | 24 | 255 | 3.2 | 3.2 | 0.00 | 0.03 | 0.03 | 79 | 1008.0 |
| 20260904200128 | 23 | 296 | 1.6 | 1.6 | 0.00 | 0.03 | 0.03 | 84 | 1008.1 |
| 20260904195626 | 23 | 303 | 0.0 | 0.0 | 0.00 | 0.03 | 0.03 | 87 | 1008.2 |
| 20260904195126 | 23 | 292 | 0.0 | 0.0 | 0.00 | 0.03 | 0.03 | 87 | 1008.2 |
| 20260904194619 | 22 | 301 | 0.0 | 1.6 | 0.00 | 0.03 | 0.03 | 84 | 1008.0 |
| 20260904194115 | 22 | 311 | 0.0 | 0.0 | 0.00 | 0.03 | 0.03 | 85 | 1008.0 |
| 20260904193609 | 23 | 2 | 1.6 | 1.6 | 0.18 | 0.03 | 0.03 | 82 | 1008.0 |
| 20260904193106 | 24 | 21 | 1.6 | 1.6 | 0.18 | 0.03 | 0.03 | 77 | 1008.1 |
| 20260904192605 | 25 | 25 | 3.2 | 3.2 | 0.00 | 0.00 | 0.00 | 71 | 1007.9 |
| 20260904192101 | 25 | 6 | 6.4 | 6.4 | 0.00 | 0.00 | 0.00 | 69 | 1008.1 |
| 20260904191557 | 26 | 74 | 3.2 | 3.2 | 0.00 | 0.00 | 0.00 | 68 | 1008.0 |
| 20260904191054 | 26 | 343 | 1.6 | 3.2 | 0.00 | 0.00 | 0.00 | 68 | 1008.2 |
| 20260904190549 | 26 | 275 | 1.6 | 3.2 | 0.00 | 0.00 | 0.00 | 67 | 1008.2 |
| 20260904190045 | 26 | 333 | 0.0 | 0.0 | 0.00 | 0.00 | 0.00 | 66 | 1008.2 |
| 20260904185536 | 26 | 302 | 3.2 | 3.2 | 0.00 | 0.00 | 0.00 | 65 | 1008.3 |
| 20260904185030 | 26 | 298 | 1.6 | 1.6 | 0.00 | 0.00 | 0.00 | 64 | 1008.1 |
| 20260904184525 | 27 | 55 | 4.8 | 6.4 | 0.00 | 0.00 | 0.00 | 63 | 1008.2 |
| 20260904184020 | 27 | 201 | 1.6 | 1.6 | 0.00 | 0.00 | 0.00 | 61 | 1008.0 |
| 20260904183515 | 26 | 275 | 3.2 | 4.8 | 0.00 | 0.00 | 0.00 | 64 | 1008.0 |
| 20260904183010 | 26 | 251 | 1.6 | 3.2 | 0.00 | 0.00 | 0.00 | 63 | 1007.9 |
| 20260904182505 | 27 | 303 | 1.6 | 3.2 | 0.00 | 0.00 | 0.00 | 64 | 1008.1 |
| 20260904182005 | 27 | 24 | 4.8 | 4.8 | 0.00 | 0.00 | 0.00 | 63 | 1008.2 |
| 20260904181501 | 27 | 308 | 1.6 | 3.2 | 0.00 | 0.00 | 0.00 | 64 | 1008.0 |
| 20260904180956 | 26 | 316 | 0.0 | 0.0 | 0.00 | 0.00 | 0.00 | 71 | 1008.1 |
| 20260904180456 | 26 | 291 | 0.0 | 0.0 | 0.00 | 0.00 | 0.00 | 68 | 1008.4 |
| 20260904175950 | 25 | 319 | 4.8 | 4.8 | 0.00 | 0.00 | 0.00 | 68 | 1008.3 |
| 20260904175450 | 25 | 276 | 3.2 | 3.2 | 0.00 | 0.00 | 0.00 | 70 | 1008.3 |
| 20260904174943 | 26 | 305 | 4.8 | 4.8 | 0.00 | 0.00 | 0.00 | 69 | 1008.2 |
| 20260904174438 | 26 | 276 | 8.0 | 11.3 | 0.00 | 0.00 | 0.00 | 68 | 1008.1 |
| 20260904173936 | 26 | 336 | 3.2 | 4.8 | 0.00 | 0.00 | 0.00 | 69 | 1008.3 |
| 20260904173435 | 26 | 18 | 3.2 | 4.8 | 0.00 | 0.00 | 0.00 | 70 | 1008.2 |
| 20260904172931 | 26 | 273 | 4.8 | 6.4 | 0.00 | 0.00 | 0.00 | 68 | 1008.3 |
| 20260904172426 | 26 | 276 | 3.2 | 4.8 | 0.00 | 0.00 | 0.00 | 67 | 1008.3 |
| 20260904171915 | 26 | 265 | 4.8 | 6.4 | 0.00 | 0.00 | 0.00 | 67 | 1008.4 |
| 20260904171411 | 26 | 29 | 8.0 | 12.9 | 0.00 | 0.00 | 0.00 | 68 | 1008.4 |
| 20260904170907 | 26 | 2 | 3.2 | 3.2 | 0.00 | 0.00 | 0.00 | 71 | 1008.2 |
| 20260904170402 | 25 | 314 | 1.6 | 3.2 | 0.00 | 0.00 | 0.00 | 72 | 1008.4 |
| 20260904165857 | 26 | 312 | 3.2 | 4.8 | 0.00 | 0.00 | 0.00 | 69 | 1008.5 |
| 20260904165355 | 25 | 266 | 1.6 | 3.2 | 0.00 | 0.00 | 0.00 | 71 | 1008.4 |
| 20260904164850 | 25 | 33 | 3.2 | 3.2 | 0.00 | 0.00 | 0.00 | 73 | 1008.5 |
| 20260904164349 | 25 | 1 | 1.6 | 1.6 | 0.00 | 0.00 | 0.00 | 73 | 1008.7 |
| 20260904163846 | 26 | 344 | 3.2 | 6.4 | 0.00 | 0.00 | 0.00 | 70 | 1008.8 |
| 20260904163345 | 25 | 20 | 3.2 | 3.2 | 0.00 | 0.00 | 0.00 | 72 | 1008.8 |
| 20260904162845 | 25 | 54 | 3.2 | 4.8 | 0.00 | 0.00 | 0.00 | 72 | 1008.9 |
| 20260904162341 | 25 | 42 | 4.8 | 6.4 | 0.00 | 0.00 | 0.00 | 71 | 1008.8 |
| 20260904161836 | 26 | 57 | 8.0 | 9.7 | 0.00 | 0.00 | 0.00 | 70 | 1008.9 |
| 20260904161331 | 25 | 292 | 4.8 | 6.4 | 0.00 | 0.00 | 0.00 | 71 | 1009.0 |
| 20260904160827 | 26 | 301 | 6.4 | 9.7 | 0.00 | 0.00 | 0.00 | 69 | 1009.0 |
| 20260904160327 | 26 | 260 | 3.2 | 3.2 | 0.00 | 0.00 | 0.00 | 72 | 1008.9 |
| 20260904155822 | 25 | 339 | 1.6 | 1.6 | 0.00 | 0.00 | 0.00 | 75 | 1009.3 |
| 20260904155316 | 25 | 296 | 3.2 | 4.8 | 0.00 | 0.00 | 0.00 | 75 | 1009.2 |
| 20260904154815 | 26 | 287 | 4.8 | 4.8 | 0.00 | 0.00 | 0.00 | 73 | 1009.1 |
| 20260904154310 | 25 | 335 | 3.2 | 4.8 | 0.00 | 0.00 | 0.00 | 78 | 1009.2 |
| 20260904153806 | 26 | 290 | 4.8 | 4.8 | 0.00 | 0.00 | 0.00 | 73 | 1009.2 |
| 20260904153301 | 25 | 20 | 1.6 | 1.6 | 0.00 | 0.00 | 0.00 | 77 | 1009.3 |
| 20260904152757 | 25 | 3 | 3.2 | 3.2 | 0.00 | 0.00 | 0.00 | 76 | 1009.3 |
| 20260904152252 | 25 | 277 | 1.6 | 1.6 | 0.00 | 0.00 | 0.00 | 79 | 1009.1 |
| 20260904151747 | 25 | 289 | 3.2 | 3.2 | 0.00 | 0.00 | 0.00 | 80 | 1009.5 |
| 20260904151246 | 24 | 258 | 0.0 | 0.0 | 0.00 | 0.00 | 0.00 | 82 | 1009.5 |
| 20260904150742 | 23 | 269 | 1.6 | 1.6 | 0.00 | 0.00 | 0.00 | 84 | 1009.5 |
| 20260904150237 | 24 | 271 | 3.2 | 3.2 | 0.00 | 0.00 | 0.00 | 83 | 1009.6 |
| 20260904145735 | 24 | 266 | 1.6 | 3.2 | 0.00 | 0.00 | 0.00 | 83 | 1009.4 |
| 20260904145231 | 23 | 224 | 3.2 | 3.2 | 0.00 | 0.00 | 0.00 | 83 | 1009.4 |
| 20260904144726 | 24 | 251 | 1.6 | 3.2 | 0.00 | 0.00 | 0.00 | 85 | 1009.5 |
| 20260904144222 | 23 | 305 | 0.0 | 0.0 | 0.00 | 0.00 | 0.00 | 86 | 1009.6 |
| 20260904143717 | 23 | 272 | 0.0 | 0.0 | 0.00 | 0.00 | 0.00 | 86 | 1009.5 |
| 20260904143214 | 23 | 291 | 0.0 | 0.0 | 0.00 | 0.00 | 0.00 | 87 | 1009.6 |
| 20260904142710 | 22 | 232 | 1.6 | 1.6 | 0.00 | 0.00 | 0.00 | 88 | 1009.7 |
| 20260904142206 | 22 | 252 | 1.6 | 1.6 | 0.00 | 0.00 | 0.00 | 89 | 1009.8 |
| 20260904141705 | 22 | 283 | 0.0 | 0.0 | 0.00 | 0.00 | 0.00 | 89 | 1009.9 |
| 20260904141201 | 22 | 222 | 1.6 | 1.6 | 0.00 | 0.00 | 0.00 | 91 | 1009.9 |
| 20260904140657 | 21 | 259 | 0.0 | 1.6 | 0.00 | 0.00 | 0.00 | 90 | 1009.7 |
| 20260904140151 | 22 | 317 | 3.2 | 3.2 | 0.00 | 0.00 | 0.00 | 90 | 1009.6 |
| 20260904135650 | 21 | 255 | 0.0 | 0.0 | 0.00 | 0.00 | 0.00 | 92 | 1009.9 |
| 20260904135146 | 21 | 293 | 0.0 | 1.6 | 0.00 | 0.00 | 0.00 | 94 | 1009.8 |
| 20260904134642 | 21 | 246 | 1.6 | 3.2 | 0.00 | 0.00 | 0.00 | 95 | 1009.8 |
| 20260904134141 | 20 | 20 | 1.6 | 1.6 | 0.00 | 0.00 | 0.00 | 96 | 1009.6 |
| 20260904133636 | 20 | 257 | 1.6 | 1.6 | 0.00 | 0.00 | 0.00 | 98 | 1009.8 |
| 20260904133132 | 20 | 246 | 1.6 | 1.6 | 0.00 | 0.00 | 0.00 | 99 | 1009.9 |
| 20260904132631 | 20 | 254 | 1.6 | 1.6 | 0.00 | 0.00 | 0.00 | 98 | 1009.7 |
| 20260904132126 | 19 | 249 | 1.6 | 1.6 | 0.00 | 0.00 | 0.00 | 99 | 1009.8 |
| 20260904131626 | 18 | 308 | 0.0 | 1.6 | 0.00 | 0.00 | 0.00 | 99 | 1010.0 |
| 20260904131122 | 18 | 277 | 0.0 | 0.0 | 0.00 | 0.00 | 0.00 | 99 | 1009.6 |
| 20260904130621 | 18 | 281 | 0.0 | 0.0 | 0.00 | 0.00 | 0.00 | 99 | 1009.7 |
| 20260904130116 | 18 | 303 | 1.6 | 1.6 | 0.00 | 0.00 | 0.00 | 99 | 1009.9 |
| 20260904125613 | 18 | 357 | 0.0 | 0.0 | 0.00 | 0.00 | 0.00 | 99 | 1009.8 |
| 20260904125112 | 18 | 277 | 1.6 | 1.6 | 0.00 | 0.00 | 0.00 | 99 | 1009.8 |
| 20260904124608 | 17 | 320 | 0.0 | 0.0 | 0.00 | 0.00 | 0.00 | 99 | 1009.8 |
| 20260904124103 | 17 | 307 | 1.6 | 1.6 | 0.00 | 0.00 | 0.00 | 99 | 1009.9 |
| 20260904123603 | 17 | 305 | 0.0 | 0.0 | 0.00 | 0.00 | 0.00 | 99 | 1009.8 |
| 20260904123059 | 18 | 294 | 0.0 | 0.0 | 0.00 | 0.00 | 0.00 | 99 | 1009.9 |
| 20260904122554 | 17 | 287 | 0.0 | 0.0 | 0.00 | 0.00 | 0.00 | 99 | 1009.8 |
| 20260904122049 | 17 | 287 | 0.0 | 0.0 | 0.00 | 0.00 | 0.00 | 99 | 1010.1 |
| 20260904121544 | 17 | 283 | 0.0 | 0.0 | 0.00 | 0.00 | 0.00 | 99 | 1009.8 |
| 20260904121040 | 17 | 263 | 1.6 | 1.6 | 0.00 | 0.00 | 0.00 | 99 | 1009.9 |
| 20260904120536 | 17 | 286 | 0.0 | 0.0 | 0.00 | 0.00 | 0.00 | 99 | 1009.9 |
| 20260904120032 | 17 | 296 | 0.0 | 0.0 | 0.00 | 0.00 | 0.00 | 99 | 1009.9 |
| 20260904115526 | 17 | 288 | 0.0 | 0.0 | 0.00 | 0.00 | 0.00 | 99 | 1009.8 |
| 20260904115020 | 17 | 296 | 0.0 | 0.0 | 0.00 | 0.00 | 0.00 | 99 | 1009.9 |
| 20260904114515 | 17 | 296 | 0.0 | 0.0 | 0.00 | 0.00 | 0.00 | 99 | 1009.9 |
| 20260904114011 | 17 | 294 | 0.0 | 0.0 | 0.00 | 0.00 | 0.00 | 99 | 1009.9 |
| 20260904113510 | 17 | 299 | 0.0 | 0.0 | 0.00 | 0.00 | 0.00 | 99 | 1010.0 |
| 20260904113009 | 17 | 294 | 0.0 | 0.0 | 0.00 | 0.00 | 0.00 | 99 | 1009.7 |
| 20260904112505 | 17 | 276 | 0.0 | 0.0 | 0.00 | 0.00 | 0.00 | 99 | 1009.7 |
| 20260904111955 | 17 | 297 | 0.0 | 0.0 | 0.00 | 0.00 | 0.00 | 99 | 1009.7 |
| 20260904111450 | 17 | 282 | 0.0 | 0.0 | 0.00 | 0.00 | 0.00 | 99 | 1009.8 |
| 20260904110941 | 17 | 300 | 0.0 | 0.0 | 0.00 | 0.00 | 0.00 | 99 | 1009.7 |
| 20260904110439 | 17 | 286 | 0.0 | 0.0 | 0.00 | 0.00 | 0.00 | 99 | 1009.9 |
| 20260904105935 | 17 | 308 | 0.0 | 0.0 | 0.00 | 0.00 | 0.00 | 99 | 1009.6 |
| 20260904105430 | 17 | 313 | 0.0 | 0.0 | 0.00 | 0.00 | 0.00 | 99 | 1009.8 |
| 20260904104924 | 17 | 304 | 0.0 | 1.6 | 0.00 | 0.00 | 0.00 | 99 | 1009.8 |
| 20260904104424 | 17 | 301 | 0.0 | 0.0 | 0.00 | 0.00 | 0.00 | 99 | 1009.7 |
| 20260904103921 | 17 | 299 | 0.0 | 0.0 | 0.00 | 0.00 | 0.00 | 99 | 1009.8 |
| 20260904103417 | 17 | 304 | 0.0 | 0.0 | 0.00 | 0.00 | 0.00 | 99 | 1009.4 |
| 20260904102913 | 17 | 288 | 0.0 | 0.0 | 0.00 | 0.00 | 0.00 | 99 | 1009.5 |
| 20260904102408 | 17 | 350 | 1.6 | 3.2 | 0.00 | 0.00 | 0.00 | 99 | 1009.6 |
| 20260904101904 | 17 | 306 | 0.0 | 0.0 | 0.00 | 0.00 | 0.00 | 99 | 1009.5 |
| 20260904101400 | 17 | 259 | 1.6 | 1.6 | 0.00 | 0.00 | 0.00 | 99 | 1009.5 |
| 20260904100855 | 17 | 304 | 0.0 | 1.6 | 0.00 | 0.00 | 0.00 | 99 | 1009.5 |
| 20260904100351 | 17 | 291 | 0.0 | 0.0 | 0.00 | 0.00 | 0.00 | 99 | 1009.6 |
| 20260904095845 | 17 | 302 | 0.0 | 0.0 | 0.00 | 0.00 | 0.00 | 99 | 1009.4 |
| 20260904095340 | 17 | 296 | 0.0 | 0.0 | 0.00 | 0.00 | 0.00 | 99 | 1009.5 |
| 20260904094835 | 17 | 294 | 0.0 | 0.0 | 0.00 | 0.00 | 0.00 | 99 | 1009.4 |
| 20260904094330 | 17 | 295 | 0.0 | 0.0 | 0.00 | 0.00 | 0.00 | 99 | 1009.3 |
| 20260904093826 | 17 | 291 | 0.0 | 0.0 | 0.00 | 0.00 | 0.00 | 99 | 1009.5 |
| 20260904093321 | 17 | 275 | 1.6 | 3.2 | 0.00 | 0.00 | 0.00 | 99 | 1009.5 |
| 20260904092816 | 17 | 319 | 0.0 | 0.0 | 0.00 | 0.00 | 0.00 | 99 | 1009.4 |
| 20260904092313 | 17 | 303 | 1.6 | 1.6 | 0.00 | 0.00 | 0.00 | 99 | 1009.3 |
| 20260904091808 | 17 | 306 | 0.0 | 0.0 | 0.00 | 0.00 | 0.00 | 99 | 1009.4 |
| 20260904091303 | 17 | 305 | 0.0 | 0.0 | 0.00 | 0.00 | 0.00 | 99 | 1009.4 |
| 20260904090758 | 17 | 298 | 0.0 | 0.0 | 0.00 | 0.00 | 0.00 | 99 | 1009.2 |
| 20260904090254 | 17 | 297 | 0.0 | 0.0 | 0.00 | 0.00 | 0.00 | 99 | 1009.5 |
| 20260904085749 | 17 | 301 | 0.0 | 0.0 | 0.00 | 0.00 | 0.00 | 99 | 1009.3 |
| 20260904085244 | 17 | 293 | 0.0 | 0.0 | 0.00 | 0.00 | 0.00 | 99 | 1009.4 |
| 20260904084739 | 17 | 302 | 0.0 | 0.0 | 0.00 | 0.00 | 0.00 | 99 | 1009.5 |
| 20260904084234 | 17 | 283 | 0.0 | 0.0 | 0.00 | 0.00 | 0.00 | 99 | 1009.3 |
| 20260904083730 | 17 | 296 | 0.0 | 0.0 | 0.00 | 0.00 | 0.00 | 99 | 1009.3 |
| 20260904083226 | 17 | 296 | 0.0 | 0.0 | 0.00 | 0.00 | 0.00 | 99 | 1009.3 |